QPF
0.00 0.00 0.00 0.00 0.00 0.00 0.00 0.00 0.00 0.00 0.00 0.00 0.00 0.00 0.00 0.00 0.00 0.00 0.00 0.00 0.00 0.00 0.00 0.00 0.00 0.00 0.00 0.00 0.00 0.00 0.00 0.00 0.00 0.00 0.00 0.00 0.00 0.00 0.00 0.00 0.00 0.00 0.00 0.00
0.00 0.00 0.00 0.00 0.00 0.00 0.00 0.00 0.00 0.00 0.00 0.00 0.00 0.00 0.00 0.00 0.00 0.00 0.00 0.00 0.00 0.00 0.00 0.00 0.00 0.00 0.00 0.00 0.00 0.00 0.00 0.00 0.00 0.00 0.00 0.00 0.00 0.00 0.00 0.00 0.00 0.00 0.00 0.00
0.00 0.00 0.00 0.00 0.00 0.00 0.00 0.00 0.00 0.00 0.00 0.00 0.00 0.00 0.00 0.00 0.00 0.00 0.00 0.00 0.00 0.00 0.00 0.00 0.00 0.00 0.00 0.00 0.00 0.00 0.00 0.00 0.00 0.00 0.00 0.00 0.00 0.00 0.00 0.00 0.00 0.00 0.00 0.00
0.00 0.00 0.00 0.00 0.00 0.00 0.00 0.00 0.00 0.00 0.00 0.00 0.00 0.00 0.00 0.00 0.00 0.00 0.00 0.00 0.00 0.00 0.00 0.00 0.00 0.00 0.00 0.00 0.00 0.00 0.00 0.00 0.00 0.00 0.00 0.00 0.00 0.00 0.00 0.00 0.00 0.01 0.00 0.00
0.00 0.00 0.00 0.00 0.00 0.00 0.00 0.00 0.00 0.00 0.00 0.00 0.00 0.00 0.00 0.00 0.00 0.00 0.00 0.00 0.00 0.00 0.00 0.00 0.00 0.00 0.00 0.00 0.00 0.00 0.00 0.00 0.00 0.00 0.00 0.00 0.00 0.00 0.00 0.00 0.00 0.01 0.01 0.00
0.00 0.00 0.00 0.00 0.00 0.00 0.00 0.00 0.00 0.00 0.00 0.00 0.00 0.00 0.00 0.00 0.00 0.00 0.00 0.00 0.00 0.00 0.00 0.00 0.00 0.00 0.00 0.00 0.00 0.00 0.00 0.00 0.00 0.00 0.00 0.00 0.00 0.00 0.00 0.00 0.01 0.01 0.02 0.02
0.00 0.00 0.00 0.00 0.00 0.00 0.00 0.00 0.00 0.00 0.00 0.00 0.00 0.00 0.00 0.00 0.00 0.00 0.00 0.00 0.00 0.00 0.00 0.00 0.00 0.00 0.00 0.00 0.00 0.00 0.00 0.00 0.00 0.00 0.00 0.00 0.00 0.00 0.00 0.00 0.02 0.05 0.01 0.02
0.00 0.00 0.00 0.00 0.00 0.00 0.00 0.00 0.00 0.00 0.00 0.00 0.00 0.00 0.00 0.00 0.00 0.00 0.00 0.00 0.00 0.00 0.00 0.00 0.00 0.00 0.00 0.00 0.00 0.00 0.00 0.00 0.00 0.00 0.00 0.00 0.00 0.00 0.00 0.00 0.01 0.05 0.01 0.01
0.00 0.00 0.00 0.00 0.00 0.00 0.00 0.00 0.00 0.00 0.00 0.00 0.00 0.00 0.00 0.00 0.00 0.00 0.00 0.00 0.00 0.00 0.00 0.00 0.00 0.00 0.00 0.00 0.00 0.00 0.00 0.00 0.00 0.00 0.00 0.00 0.00 0.00 0.00 0.00 0.00 0.00 0.00 0.00
0.00 0.00 0.00 0.00 0.00 0.00 0.00 0.00 0.00 0.00 0.00 0.00 0.00 0.00 0.00 0.00 0.00 0.00 0.00 0.00 0.00 0.00 0.00 0.00 0.00 0.00 0.00 0.00 0.00 0.00 0.00 0.00 0.00 0.00 0.00 0.00 0.00 0.00 0.00 0.00 0.00 0.00 0.00 0.00
0.00 0.00 0.00 0.00 0.00 0.00 0.00 0.00 0.00 0.00 0.00 0.00 0.00 0.00 0.00 0.00 0.00 0.00 0.00 0.00 0.00 0.00 0.00 0.00 0.00 0.00 0.00 0.00 0.00 0.00 0.00 0.00 0.00 0.00 0.00 0.00 0.00 0.00 0.00 0.00 0.00 0.00 0.00 0.00
0.00 0.00 0.00 0.00 0.00 0.00 0.00 0.00 0.00 0.00 0.00 0.00 0.00 0.00 0.00 0.00 0.00 0.00 0.00 0.00 0.00 0.00 0.00 0.00 0.00 0.00 0.00 0.00 0.00 0.00 0.00 0.00 0.00 0.00 0.00 0.00 0.00 0.00 0.00 0.00 0.00 0.00 0.00 0.00
0.00 0.00 0.00 0.00 0.00 0.00 0.00 0.00 0.00 0.00 0.00 0.00 0.00 0.00 0.00 0.00 0.00 0.00 0.00 0.00 0.00 0.00 0.00 0.00 0.00 0.00 0.00 0.00 0.00 0.00 0.00 0.00 0.00 0.00 0.00 0.00 0.00 0.00 0.00 0.00 0.00 0.00 0.00 0.00
0.00 0.00 0.00 0.00 0.00 0.00 0.00 0.00 0.00 0.00 0.00 0.00 0.00 0.00 0.00 0.00 0.00 0.00 0.00 0.00 0.00 0.00 0.00 0.00 0.00 0.00 0.00 0.00 0.00 0.00 0.00 0.00 0.00 0.00 0.00 0.00 0.00 0.00 0.00 0.00 0.00 0.00 0.00 0.00
0.00 0.00 0.00 0.00 0.00 0.00 0.00 0.00 0.00 0.00 0.00 0.00 0.00 0.00 0.00 0.00 0.00 0.00 0.00 0.00 0.00 0.00 0.00 0.00 0.00 0.00 0.00 0.00 0.00 0.00 0.00 0.00 0.00 0.00 0.00 0.00 0.00 0.00 0.00 0.00 0.00 0.00 0.00 0.00
0.00 0.00 0.00 0.00 0.00 0.00 0.00 0.00 0.00 0.00 0.00 0.00 0.00 0.00 0.00 0.00 0.00 0.00 0.00 0.00 0.00 0.00 0.00 0.00 0.00 0.00 0.00 0.00 0.00 0.00 0.00 0.00 0.00 0.00 0.00 0.00 0.01 0.00 0.00 0.00 0.00 0.00 0.00 0.00
0.00 0.00 0.00 0.00 0.00 0.00 0.00 0.00 0.00 0.00 0.00 0.00 0.00 0.00 0.00 0.00 0.00 0.00 0.00 0.00 0.00 0.00 0.00 0.00 0.00 0.00 0.00 0.00 0.00 0.01 0.01 0.00 0.00 0.00 0.01 0.01 0.01 0.00 0.00 0.00 0.00 0.00 0.00 0.00
0.00 0.00 0.00 0.00 0.00 0.00 0.00 0.00 0.00 0.00 0.00 0.00 0.00 0.00 0.00 0.00 0.00 0.00 0.00 0.00 0.00 0.00 0.00 0.00 0.00 0.00 0.00 0.00 0.01 0.00 0.00 0.00 0.00 0.00 0.01 0.00 0.00 0.00 0.00 0.00 0.00 0.00 0.00 0.00
0.00 0.00 0.00 0.00 0.00 0.00 0.00 0.00 0.00 0.00 0.00 0.00 0.00 0.00 0.00 0.00 0.00 0.00 0.00 0.00 0.00 0.00 0.00 0.00 0.00 0.00 0.00 0.00 0.00 0.01 0.01 0.01 0.00 0.01 0.00 0.00 0.00 0.00 0.00 0.00 0.00 0.00 0.00 0.00
0.00 0.00 0.00 0.00 0.00 0.00 0.00 0.00 0.00 0.00 0.00 0.00 0.00 0.00 0.00 0.00 0.00 0.00 0.00 0.00 0.00 0.00 0.00 0.00 0.00 0.00 0.00 0.00 0.00 0.01 0.01 0.00 0.01 0.00 0.00 0.00 0.00 0.00 0.00 0.00 0.00 0.00 0.00 0.00
0.00 0.00 0.00 0.00 0.00 0.00 0.00 0.00 0.00 0.00 0.00 0.00 0.00 0.00 0.00 0.00 0.00 0.00 0.00 0.00 0.00 0.00 0.00 0.00 0.00 0.00 0.00 0.00 0.00 0.01 0.00 0.01 0.00 0.00 0.00 0.00 0.00 0.00 0.00 0.00 0.00 0.00 0.00 0.00
0.00 0.00 0.00 0.00 0.01 0.00 0.00 0.00 0.00 0.00 0.00 0.00 0.00 0.00 0.00 0.00 0.00 0.00 0.00 0.00 0.00 0.00 0.00 0.00 0.00 0.00 0.00 0.00 0.00 0.00 0.00 0.00 0.00 0.00 0.00 0.00 0.00 0.00 0.00 0.00 0.00 0.00 0.00 0.00
0.00 0.00 0.00 0.00 0.00 0.00 0.00 0.00 0.00 0.00 0.00 0.00 0.00 0.00 0.00 0.00 0.00 0.00 0.00 0.00 0.00 0.00 0.00 0.00 0.00 0.00 0.00 0.00 0.00 0.00 0.00 0.00 0.00 0.00 0.00 0.00 0.00 0.00 0.00 0.00 0.00 0.00 0.00 0.00
0.00 0.00 0.00 0.00 0.00 0.00 0.00 0.00 0.00 0.00 0.00 0.00 0.00 0.00 0.00 0.00 0.00 0.00 0.00 0.00 0.00 0.00 0.00 0.00 0.00 0.00 0.00 0.00 0.00 0.00 0.00 0.00 0.00 0.00 0.00 0.00 0.00 0.00 0.00 0.00 0.00 0.00 0.00 0.00
0.00 0.00 0.00 0.00 0.00 0.00 0.00 0.00 0.00 0.00 0.00 0.00 0.00 0.00 0.00 0.00 0.00 0.00 0.00 0.00 0.00 0.00 0.00 0.00 0.00 0.00 0.00 0.00 0.00 0.00 0.00 0.00 0.00 0.00 0.00 0.00 0.00 0.00 0.00 0.00 0.00 0.00 0.00 0.00
0.00 0.00 0.00 0.00 0.00 0.00 0.00 0.00 0.00 0.00 0.00 0.00 0.00 0.00 0.00 0.00 0.00 0.00 0.00 0.00 0.00 0.00 0.00 0.00 0.00 0.00 0.00 0.00 0.00 0.00 0.00 0.00 0.00 0.00 0.00 0.00 0.00 0.00 0.00 0.00 0.00 0.00 0.00 0.00
MSLP
1009.67 1010.61 1010.74 1010.79 1010.89 1010.86 1011.16 1011.60 1011.86 1011.62 1011.67 1011.46 1011.76 1011.59 1010.75 1010.07 1010.06 1009.74 1010.31 1011.19 1012.19 1012.69 1012.89 1012.92 1012.84 1013.03 1013.22 1013.57 1014.10 1014.42 1014.64 1014.57 1014.14 1013.94 1013.71 1013.12 1012.63 1011.60 1011.10 1010.45 1009.70 1008.90 1008.03 1007.01
1010.32 1010.50 1010.25 1010.17 1010.36 1010.81 1011.55 1011.97 1012.51 1012.05 1011.66 1011.82 1012.06 1012.17 1012.26 1011.46 1011.30 1011.72 1011.89 1013.10 1013.51 1013.90 1014.11 1014.62 1014.40 1014.38 1014.40 1014.68 1014.86 1014.98 1015.16 1014.90 1014.34 1013.98 1013.70 1013.43 1013.00 1012.02 1011.13 1010.57 1009.84 1009.12 1008.45 1007.54
1010.16 1009.96 1009.72 1009.95 1010.62 1011.09 1011.89 1012.36 1012.84 1013.09 1012.78 1012.88 1013.15 1013.75 1013.92 1014.01 1013.21 1013.45 1014.19 1014.77 1015.18 1015.25 1015.53 1015.62 1015.18 1015.20 1015.11 1014.94 1014.79 1014.62 1014.51 1014.21 1014.17 1013.89 1013.55 1013.29 1012.92 1011.92 1011.04 1010.53 1010.05 1009.36 1008.59 1008.04
1010.27 1010.05 1009.85 1010.23 1010.83 1011.22 1012.00 1012.45 1012.90 1013.40 1014.12 1014.52 1014.53 1015.95 1015.93 1015.99 1015.74 1015.79 1016.28 1016.38 1016.72 1016.44 1016.15 1016.08 1015.99 1015.83 1015.62 1015.36 1015.34 1014.96 1014.79 1015.05 1014.57 1014.23 1014.28 1013.89 1013.83 1012.99 1012.05 1011.49 1010.64 1009.71 1009.19 1008.47
1010.84 1010.37 1010.27 1010.54 1010.99 1011.24 1012.40 1012.76 1013.65 1014.02 1014.85 1015.62 1015.74 1016.43 1016.61 1016.62 1016.92 1017.32 1017.36 1017.25 1017.34 1017.17 1016.69 1016.73 1016.70 1016.60 1016.47 1016.19 1015.98 1015.53 1015.29 1015.00 1014.53 1014.24 1014.57 1014.88 1013.85 1013.34 1012.15 1011.48 1011.04 1010.22 1009.44 1009.15
1010.93 1010.19 1010.20 1010.54 1011.05 1011.63 1012.53 1013.48 1014.46 1015.35 1016.11 1017.01 1016.80 1017.19 1017.63 1017.16 1017.09 1017.59 1017.69 1017.47 1017.46 1017.26 1017.18 1017.27 1017.02 1016.71 1016.56 1016.26 1015.99 1015.62 1015.54 1015.27 1014.73 1014.33 1014.20 1014.43 1014.30 1013.10 1012.68 1011.69 1011.29 1010.86 1009.95 1009.39
1011.90 1011.64 1010.98 1011.04 1011.56 1012.23 1013.18 1015.09 1016.85 1017.66 1018.17 1018.23 1017.17 1017.27 1017.13 1016.79 1017.07 1017.34 1017.81 1018.01 1017.87 1017.75 1017.64 1017.46 1017.38 1017.26 1017.05 1016.75 1016.54 1016.20 1015.72 1015.44 1014.84 1014.41 1013.94 1013.90 1013.79 1013.34 1013.17 1012.11 1011.66 1011.54 1010.94 1010.19
1013.68 1013.12 1012.51 1012.15 1012.35 1013.04 1014.12 1015.62 1017.55 1018.74 1019.49 1018.90 1017.79 1017.20 1016.62 1016.54 1017.01 1017.21 1017.61 1018.02 1018.15 1018.10 1018.08 1018.06 1018.03 1017.86 1017.55 1017.36 1016.93 1016.52 1016.01 1015.62 1015.22 1014.65 1014.06 1013.84 1013.30 1013.50 1013.60 1012.43 1011.72 1011.81 1011.46 1011.10
1014.47 1014.01 1013.42 1013.02 1012.95 1013.43 1014.49 1015.73 1016.69 1018.38 1019.56 1019.51 1018.38 1017.59 1017.03 1016.91 1017.30 1017.74 1018.05 1018.25 1018.21 1018.23 1017.90 1018.09 1017.78 1017.74 1017.67 1017.30 1016.86 1016.68 1016.30 1015.81 1015.44 1014.79 1014.33 1013.95 1013.52 1013.72 1013.72 1012.62 1011.94 1011.88 1011.56 1011.24
1015.21 1015.28 1014.49 1013.90 1013.78 1014.11 1014.78 1015.83 1017.27 1019.12 1020.42 1020.56 1019.30 1018.18 1017.29 1017.05 1017.31 1017.74 1018.05 1018.06 1018.11 1018.10 1018.07 1017.78 1017.70 1017.53 1017.50 1017.25 1016.96 1016.68 1016.33 1015.76 1015.33 1014.88 1014.42 1014.05 1013.66 1013.26 1013.15 1012.38 1012.13 1011.94 1011.50 1011.37
1015.87 1016.51 1016.08 1015.27 1015.14 1015.41 1015.93 1016.77 1018.02 1019.44 1020.62 1021.04 1020.49 1019.14 1016.86 1016.63 1016.77 1017.59 1018.17 1018.45 1018.40 1018.02 1017.87 1017.75 1017.59 1017.59 1017.39 1016.97 1016.79 1016.67 1016.28 1015.79 1015.22 1014.78 1014.33 1013.96 1013.49 1013.00 1012.63 1012.25 1012.12 1012.00 1011.68 1011.56
1017.06 1018.08 1018.37 1017.39 1015.94 1015.77 1016.52 1017.62 1018.61 1020.38 1021.04 1021.12 1020.69 1018.69 1016.95 1017.04 1017.31 1017.85 1018.25 1018.26 1018.21 1018.03 1018.02 1017.98 1017.81 1017.79 1017.53 1017.19 1016.70 1016.32 1015.96 1015.60 1015.21 1014.78 1014.35 1013.89 1013.29 1012.74 1012.35 1012.01 1012.17 1012.11 1011.66 1011.45
1017.67 1019.36 1019.81 1018.50 1017.52 1016.99 1017.58 1018.02 1019.03 1020.00 1020.75 1020.94 1021.14 1019.48 1018.36 1017.94 1018.30 1018.59 1018.67 1018.62 1018.56 1018.55 1018.46 1018.40 1018.26 1018.06 1017.63 1017.15 1016.66 1016.24 1015.89 1015.48 1014.99 1014.50 1014.15 1013.75 1013.20 1012.72 1012.31 1012.14 1012.08 1012.07 1011.71 1011.59
1018.16 1019.99 1020.58 1020.50 1019.99 1019.80 1019.24 1018.78 1018.82 1019.74 1020.66 1020.37 1020.26 1019.74 1019.60 1019.40 1019.35 1019.24 1019.16 1018.85 1018.81 1018.72 1018.66 1018.67 1018.59 1018.19 1017.62 1017.16 1016.64 1016.10 1015.63 1015.28 1014.81 1014.23 1013.85 1013.44 1012.86 1012.37 1012.04 1012.14 1012.22 1012.29 1011.95 1011.84
1019.59 1020.80 1021.15 1020.97 1020.59 1020.00 1019.62 1019.41 1019.13 1019.30 1019.31 1019.80 1019.88 1020.08 1020.16 1019.73 1019.54 1019.35 1019.21 1019.09 1018.98 1018.92 1018.82 1018.71 1018.36 1017.96 1017.43 1016.92 1016.38 1015.76 1015.37 1015.11 1014.49 1013.94 1013.55 1012.95 1012.26 1012.02 1012.20 1012.29 1012.35 1012.12 1012.28 1012.13
1020.43 1021.40 1021.75 1021.72 1020.92 1020.34 1019.75 1019.40 1018.86 1018.52 1018.45 1019.11 1019.63 1019.90 1019.81 1019.61 1019.35 1019.32 1019.30 1019.24 1019.25 1019.12 1018.86 1018.62 1018.31 1017.88 1017.36 1016.78 1016.20 1015.51 1015.15 1014.81 1014.17 1013.80 1013.33 1012.66 1012.02 1012.34 1012.54 1012.54 1012.55 1012.54 1012.63 1012.46
1021.16 1022.29 1023.02 1022.67 1021.76 1020.69 1019.93 1019.16 1018.77 1018.71 1018.74 1018.98 1019.59 1019.85 1019.81 1019.75 1019.60 1019.45 1019.47 1019.52 1019.39 1019.13 1018.91 1018.70 1018.37 1017.82 1017.27 1016.76 1016.09 1015.50 1015.01 1014.54 1014.07 1013.71 1013.23 1012.97 1012.81 1012.88 1013.05 1012.92 1012.93 1012.97 1013.05 1012.90
1021.42 1022.60 1023.48 1023.89 1022.91 1021.72 1019.69 1018.86 1018.42 1018.79 1019.39 1019.58 1019.83 1019.94 1019.84 1019.72 1019.48 1019.20 1019.31 1019.35 1019.23 1019.10 1018.88 1018.59 1018.19 1017.76 1017.37 1016.65 1016.07 1015.40 1014.70 1014.34 1014.07 1013.61 1013.28 1013.34 1013.37 1013.46 1013.51 1013.40 1013.63 1013.49 1013.28 1013.11
1020.47 1022.26 1023.97 1024.40 1023.93 1021.86 1019.60 1019.29 1019.12 1019.16 1019.47 1019.47 1019.60 1019.61 1019.55 1019.48 1019.34 1019.23 1018.97 1018.93 1018.86 1018.82 1018.61 1018.39 1018.05 1017.75 1017.28 1016.76 1016.14 1015.43 1014.60 1014.28 1014.02 1013.73 1013.80 1013.92 1014.00 1014.09 1014.22 1014.26 1014.12 1013.96 1013.72 1013.48
1020.93 1021.60 1023.15 1024.34 1023.95 1022.33 1020.09 1019.49 1018.99 1018.94 1019.19 1019.13 1019.23 1019.32 1019.47 1019.57 1019.64 1019.10 1018.80 1018.86 1018.78 1018.70 1018.48 1018.08 1017.90 1017.61 1017.23 1016.67 1016.22 1015.48 1014.86 1014.42 1014.31 1014.40 1014.54 1014.65 1014.69 1014.71 1014.72 1014.69 1014.51 1014.27 1014.02 1013.85
1021.56 1022.45 1023.08 1023.52 1023.18 1021.62 1019.55 1018.92 1018.80 1019.51 1019.60 1019.04 1019.24 1019.37 1019.55 1019.75 1019.37 1018.75 1018.98 1018.90 1018.76 1018.65 1018.35 1017.94 1017.86 1017.64 1017.20 1016.79 1016.33 1015.79 1015.30 1015.00 1015.10 1015.10 1015.19 1015.24 1015.20 1015.25 1015.27 1015.09 1014.80 1014.59 1014.22 1014.00
1021.04 1021.98 1022.66 1022.88 1022.29 1020.62 1018.92 1018.90 1019.29 1019.34 1018.98 1019.05 1019.18 1019.16 1019.22 1019.19 1019.17 1019.20 1019.13 1018.95 1018.77 1018.61 1018.23 1018.01 1017.87 1017.49 1017.11 1016.78 1016.45 1016.01 1015.75 1015.80 1015.77 1015.81 1015.81 1015.85 1015.81 1015.70 1015.49 1015.22 1014.86 1014.67 1014.48 1014.28
1020.87 1020.90 1021.37 1021.71 1020.77 1019.62 1019.24 1018.98 1018.78 1018.91 1019.01 1019.02 1019.13 1019.19 1019.30 1019.55 1019.53 1019.49 1019.23 1019.05 1018.81 1018.59 1018.35 1018.17 1017.83 1017.43 1016.99 1016.71 1016.44 1016.29 1016.24 1016.31 1016.38 1016.39 1016.44 1016.37 1016.16 1015.96 1015.68 1015.43 1015.20 1015.10 1014.97 1014.82
1020.42 1020.23 1020.74 1020.79 1020.04 1019.73 1019.22 1018.91 1018.96 1019.05 1019.19 1019.50 1019.61 1019.62 1019.71 1019.82 1019.64 1019.50 1019.24 1018.95 1018.76 1018.51 1018.38 1018.02 1017.67 1017.35 1016.98 1016.57 1016.29 1016.44 1016.68 1016.79 1016.83 1017.04 1017.04 1016.92 1016.73 1016.57 1016.25 1015.94 1015.76 1015.59 1015.54 1015.43
1020.82 1020.52 1020.47 1020.54 1019.92 1019.38 1019.07 1019.10 1019.21 1019.32 1019.46 1019.68 1019.77 1019.82 1019.89 1019.95 1019.82 1019.67 1019.31 1018.99 1018.64 1018.42 1018.24 1017.82 1017.60 1017.33 1017.04 1016.87 1016.90 1017.07 1017.21 1017.30 1017.59 1017.67 1017.62 1017.44 1017.23 1017.02 1016.86 1016.74 1016.58 1016.23 1016.05 1015.83
1020.18 1020.04 1020.43 1020.11 1019.61 1019.71 1019.33 1019.24 1019.41 1019.56 1019.91 1020.08 1020.14 1020.05 1020.09 1020.07 1019.85 1019.54 1019.12 1018.78 1018.57 1018.25 1017.82 1017.61 1017.43 1017.28 1017.26 1017.36 1017.47 1017.62 1017.72 1017.99 1018.22 1018.26 1018.09 1017.94 1017.80 1017.74 1017.61 1017.40 1017.10 1016.48 1016.27 1015.87
Thickness
5742 5719 5713 5725 5727 5734 5731 5719 5710 5724 5730 5728 5715 5715 5727 5738 5736 5737 5729 5721 5710 5702 5701 5698 5697 5693 5690 5684 5678 5673 5670 5667 5665 5662 5659 5658 5656 5663 5665 5669 5672 5679 5686 5695
5720 5708 5731 5743 5741 5731 5714 5704 5697 5717 5727 5722 5712 5712 5711 5723 5723 5716 5712 5697 5689 5682 5678 5675 5674 5672 5667 5661 5654 5650 5645 5644 5645 5645 5643 5640 5639 5644 5651 5653 5657 5663 5669 5678
5712 5730 5743 5737 5719 5715 5707 5698 5700 5701 5711 5709 5707 5687 5690 5694 5699 5695 5685 5677 5669 5663 5660 5658 5659 5655 5649 5645 5639 5636 5633 5631 5629 5627 5626 5626 5626 5630 5634 5638 5641 5647 5654 5660
5722 5732 5732 5717 5714 5715 5696 5714 5712 5704 5686 5665 5692 5647 5665 5667 5668 5665 5657 5652 5649 5648 5647 5643 5641 5639 5636 5632 5627 5623 5617 5608 5609 5607 5604 5603 5601 5604 5607 5613 5619 5628 5635 5642
5702 5719 5718 5708 5712 5720 5702 5713 5703 5701 5682 5671 5669 5640 5649 5656 5647 5644 5645 5647 5641 5637 5638 5633 5627 5623 5620 5616 5611 5609 5605 5601 5598 5594 5584 5578 5586 5588 5594 5598 5601 5608 5616 5622
5712 5732 5727 5719 5718 5716 5714 5695 5683 5671 5659 5635 5663 5644 5628 5641 5648 5641 5641 5640 5636 5633 5629 5621 5619 5615 5610 5605 5602 5598 5592 5589 5587 5583 5574 5565 5569 5576 5577 5582 5586 5589 5597 5603
5694 5699 5716 5721 5704 5704 5690 5657 5623 5636 5621 5624 5649 5635 5628 5645 5643 5639 5632 5628 5625 5623 5618 5612 5607 5601 5596 5593 5588 5585 5581 5578 5575 5572 5566 5558 5557 5560 5558 5565 5568 5567 5574 5581
5659 5662 5691 5707 5699 5688 5680 5658 5620 5620 5605 5617 5637 5622 5630 5646 5637 5633 5627 5617 5613 5610 5604 5597 5591 5583 5579 5576 5574 5570 5568 5564 5562 5559 5555 5549 5549 5545 5543 5553 5557 5555 5556 5561
5656 5666 5690 5696 5698 5688 5671 5653 5658 5629 5620 5604 5617 5634 5634 5632 5621 5615 5610 5605 5599 5593 5591 5586 5583 5578 5572 5568 5564 5558 5553 5550 5550 5548 5546 5542 5539 5533 5531 5541 5545 5542 5544 5549
5669 5651 5675 5686 5688 5680 5670 5665 5629 5608 5603 5597 5601 5615 5604 5620 5615 5609 5601 5596 5593 5588 5583 5581 5576 5573 5566 5559 5551 5545 5543 5542 5538 5536 5532 5534 5532 5529 5526 5535 5533 5532 5534 5536
5666 5649 5656 5668 5660 5649 5643 5631 5626 5611 5593 5579 5569 5583 5619 5622 5615 5602 5595 5588 5581 5581 5577 5573 5568 5564 5558 5553 5545 5539 5533 5530 5527 5524 5522 5521 5523 5523 5525 5528 5525 5524 5525 5525
5654 5629 5622 5640 5659 5657 5645 5634 5614 5575 5592 5586 5563 5579 5620 5612 5599 5590 5584 5582 5578 5574 5565 5559 5554 5550 5547 5539 5537 5532 5526 5521 5517 5512 5510 5510 5511 5517 5519 5520 5516 5514 5517 5518
5644 5610 5584 5615 5627 5635 5626 5627 5615 5597 5578 5584 5557 5570 5592 5590 5582 5577 5573 5568 5563 5556 5551 5544 5539 5535 5534 5532 5527 5521 5515 5511 5508 5505 5501 5499 5500 5505 5510 5510 5509 5507 5509 5509
5631 5603 5597 5580 5600 5600 5600 5607 5607 5590 5545 5580 5575 5576 5571 5568 5565 5563 5559 5556 5551 5545 5539 5534 5529 5525 5523 5521 5516 5513 5507 5503 5498 5495 5493 5491 5493 5498 5502 5500 5498 5497 5499 5499
5613 5598 5598 5600 5600 5601 5599 5596 5599 5591 5585 5568 5573 5566 5560 5562 5559 5556 5553 5547 5539 5534 5530 5525 5522 5518 5516 5513 5509 5504 5499 5492 5488 5486 5486 5488 5491 5491 5489 5488 5486 5487 5485 5488
5604 5585 5596 5589 5596 5596 5592 5588 5592 5597 5598 5580 5567 5559 5562 5558 5554 5547 5540 5536 5531 5526 5523 5519 5515 5512 5510 5507 5503 5497 5490 5484 5483 5482 5483 5486 5488 5482 5480 5479 5477 5476 5473 5477
5589 5574 5567 5574 5584 5585 5568 5586 5586 5584 5576 5575 5555 5556 5553 5549 5543 5538 5532 5525 5520 5516 5513 5508 5505 5505 5502 5497 5494 5490 5486 5481 5480 5481 5482 5479 5478 5475 5471 5470 5469 5468 5468 5471
5577 5567 5557 5534 5557 5534 5579 5587 5586 5572 5563 5559 5553 5549 5546 5540 5535 5532 5524 5516 5512 5507 5502 5500 5498 5494 5490 5490 5488 5486 5486 5482 5479 5481 5480 5475 5472 5467 5464 5464 5461 5462 5465 5468
5588 5566 5541 5524 5494 5559 5580 5572 5567 5561 5556 5555 5550 5545 5543 5535 5530 5527 5519 5512 5507 5500 5494 5491 5487 5483 5481 5480 5482 5483 5485 5483 5481 5480 5476 5471 5468 5464 5460 5459 5458 5459 5460 5462
5579 5570 5547 5521 5539 5542 5562 5564 5566 5559 5535 5549 5546 5539 5532 5525 5510 5512 5514 5506 5501 5491 5488 5486 5482 5478 5475 5475 5477 5481 5482 5483 5481 5476 5471 5467 5463 5460 5458 5456 5456 5457 5457 5458
5557 5557 5545 5533 5534 5540 5555 5562 5560 5530 5527 5544 5538 5532 5524 5512 5506 5510 5502 5498 5492 5486 5484 5482 5477 5473 5472 5472 5475 5478 5479 5478 5474 5471 5467 5463 5460 5457 5454 5452 5451 5450 5451 5451
5559 5548 5541 5536 5531 5534 5561 5551 5536 5533 5536 5536 5531 5523 5516 5511 5504 5498 5494 5489 5484 5480 5480 5479 5474 5472 5471 5472 5474 5475 5476 5472 5469 5466 5463 5459 5456 5453 5450 5448 5448 5447 5446 5445
5547 5548 5527 5534 5534 5544 5548 5543 5543 5536 5531 5527 5521 5513 5505 5497 5492 5487 5484 5480 5477 5475 5475 5472 5471 5472 5473 5474 5475 5474 5472 5469 5465 5463 5459 5456 5454 5451 5449 5448 5447 5445 5444 5442
5555 5556 5541 5536 5548 5541 5540 5538 5535 5530 5524 5513 5506 5499 5491 5485 5480 5475 5472 5471 5470 5471 5470 5471 5471 5472 5474 5477 5479 5475 5471 5467 5464 5460 5456 5453 5450 5448 5446 5445 5442 5441 5436 5435
5536 5542 5539 5531 5537 5536 5537 5529 5524 5518 5511 5502 5496 5489 5482 5474 5468 5463 5463 5465 5469 5466 5468 5471 5471 5473 5476 5477 5476 5473 5470 5467 5461 5457 5455 5453 5449 5447 5444 5439 5436 5434 5431 5430
5536 5534 5510 5510 5530 5521 5522 5522 5516 5509 5500 5492 5484 5479 5474 5466 5460 5458 5461 5465 5464 5465 5470 5472 5474 5477 5477 5476 5475 5473 5470 5464 5460 5456 5452 5451 5446 5441 5437 5432 5430 5430 5427 5427